星链-35665(STARLINK-35665)

导读

STARLINK-35665是由美国发射的星链卫星,星链是SpaceX打造的全球卫星互联网项目。该卫星于2025年11月8日发射入轨,是星链星座组网的组成单元,旨在为全球提供低延迟、高速率的宽带互联网服务,尤其覆盖偏远地区等地面网络难以抵达的区域,推进全球互联网互联互通覆盖。

Basic Information
目录编号:
66390
目录名称:
STARLINK-35665
国际标识:
2025-257L
轨道中心:
EARTH
卫星名称:
星链-35665
卫星全名:
星链-35665(STARLINK-35665)
卫星状态:
在轨 (已飞行300 天)
发射日期:
2025-11-08 UTC
国别 :
美国 (US)
星等 :
--
Orbit Information
数据来源 国际轨道数据
星历时间: 2026-09-04T07:40:32+0800
10小时前
查看轨道信息
半长轴: 6840.84km
偏心率: 0.0001117
轨道倾角: 53.158°
近地点辐角 93.437°
升交点赤经 106.560°
平近点角 266.676°
近地点: 461.938km
远地点: 463.468km
周期: 93.848分钟
每日圈数: 15.344001
Detailed Information
固有亮度:
5
最大亮度:
2.5
卫星平台:
Starlink V1.0
覆盖范围:
全球
运营商:
太空探索技术公司
运营商所在国:
美国
制造商(研发单位):
太空探索技术公司
制造商所在国:
美国
使用方式:
暂无
Satellite Introduction
Starlink 计划是 SpaceX 推出的全球卫星互联网项目,通过发射低轨道卫星,为全球尤其是偏远地区提供高速、低延迟的互联网服务。自 2019 年起,Starlink 已部署数千颗卫星,旨在缩小全球数字鸿沟,推动互联网普及。该项目还为军事、航空等行业提供通信支持,带来广泛经济效益。
2D Orbit Map
3D Orbit Map
Orbit Altitude Analysis Chart
Orbit Inclination Analysis Chart
Orbit Comprehensive Analysis Chart
View Comprehensive Chart
Conjunction Data List
Event ID Objects TCA Miss Dist (km) Collision Risk Probability Collision Risk Index (CRI) Action
CDM_260827-231906-639006-823721
2026-08-27T
23:19:59+0000
0.233 km
中距离
5.305607E-4 高风险 0.89
CDM_260827-194106-321706-639021
OBJECT H (63217)
2026-08-27T
19:41:15+0000
1.395 km
极远距离
4.498284E-6 低风险 0.48
CDM_260829-071006-350006-639021
2026-08-29T
07:10:09+0000
1.919 km
极远距离
2.079526E-6 低风险 0.41
CDM_260905-105604-750206-639021
HAWK-2C (47502)
2026-09-05T
10:56:34+0000
2.555 km
极远距离
1.683538E-6 低风险 0.4
CDM_260904-222505-199306-639021
2026-09-04T
22:25:57+0000
2.611 km
极远距离
1.433626E-6 低风险 0.38
CDM_260829-031506-350006-639021
2026-08-29T
03:15:42+0000
2.517 km
极远距离
1.16803E-6 低风险 0.36
CDM_260904-113805-230306-639021
2026-09-04T
11:38:22+0000
2.843 km
极远距离
1.09144E-6 低风险 0.36
CDM_260827-211506-321706-639022
OBJECT H (63217)
2026-08-27T
21:15:10+0000
2.678 km
极远距离
9.119049E-7 极低风险 0.34